Location: Stanford
(52.2833°N, 2.4333°W)
Time: 01:12:09
(UTC+00:00)

COSMO-SKYMED 1 - Pass Details

Date: 22 January 2021
Orbit: 621 x 623 km, 97.9° (Epoch: 28 February)

Event Time Altitude Azimuth Distance (km) Brightness Sun altitude
Exits shadow 18:31:07 - 14° (NNE) 2,513 5.4 -16.8°
Reaches altitude 10° 18:32:20 10° 14° (NNE) 2,008 4.9 -16.9°
Maximum altitude 18:36:43 90° 309° (NW) 631 2.5 -17.6°
Drops below altitude 10° 18:41:04 10° 196° (SSW) 1,990 5.5 -18.3°
Sets 18:43:14 0° 196° (SSW) 2,892 6.3 -18.6°
